When you browse on this site, cookies collect data to enhance your experience and personalize the content and advertising you see.
Visit our Privacy Policy to learn more. By continuing to use the site, you agree to this use of cookies and data.
  • In Switzerland
  • List of Countries
  • For 7 days
  • Water Temperature
  • Satellite Maps
  • Weather Map
  • Weather Widgets
  • user-avatar
    Login

    Hourly Weather Aurich

    Today, 23 May, Thursday

    Time Temperature Precipitation Wind Pressure Humidity
    00:00 +7°C° 0 mm 2 mps 763 mmHg 87%
    01:00 +7°C° 0 mm 2 mps 763 mmHg 86%
    02:00 +5°C° 0 mm 3 mps 763 mmHg 85%
    03:00 +5°C° 0 mm 3 mps 763 mmHg 84%
    04:00 +8°C° 0 mm 3 mps 763 mmHg 82%
    05:00 +8°C° 0 mm 4 mps 763 mmHg 79%
    06:00 +11°C° 0 mm 4 mps 762 mmHg 74%
    07:00 +13°C° 0 mm 4 mps 762 mmHg 71%
    08:00 +14°C° 0 mm 5 mps 762 mmHg 67%
    09:00 +16°C° 0 mm 5 mps 762 mmHg 64%
    10:00 +17°C° 0 mm 5 mps 762 mmHg 62%
    11:00 +18°C° 0 mm 4 mps 762 mmHg 61%
    12:00 +19°C° 0 mm 4 mps 762 mmHg 59%
    13:00 +19°C° 0 mm 4 mps 762 mmHg 61%
    14:00 +19°C° 0 mm 4 mps 762 mmHg 62%
    15:00 +19°C° 0 mm 3 mps 761 mmHg 64%
    16:00 +18°C° 0 mm 3 mps 761 mmHg 70%
    17:00 +17°C° 0 mm 3 mps 761 mmHg 76%
    18:00 +15°C° 0 mm 2 mps 761 mmHg 83%
    19:00 +14°C° 0 mm 2 mps 761 mmHg 85%
    20:00 +12°C° 0 mm 1 mps 761 mmHg 87%
    21:00 +10°C° 0 mm 1 mps 761 mmHg 90%
    22:00 +10°C° 0 mm 1 mps 761 mmHg 90%
    23:00 +9°C° 0 mm 2 mps 761 mmHg 90%

    Tomorrow, 24 May, Friday

    Time Temperature Precipitation Wind Pressure Humidity
    00:00 +9°C° 0 mm 2 mps 760 mmHg 90%
    01:00 +9°C° 0 mm 2 mps 760 mmHg 90%
    02:00 +8°C° 0 mm 3 mps 760 mmHg 90%
    03:00 +8°C° 0 mm 3 mps 760 mmHg 89%
    04:00 +10°C° 0 mm 3 mps 760 mmHg 86%
    05:00 +11°C° 0 mm 4 mps 760 mmHg 82%
    06:00 +12°C° 0 mm 4 mps 760 mmHg 79%
    07:00 +14°C° 0 mm 4 mps 759 mmHg 77%
    08:00 +15°C° 0 mm 5 mps 759 mmHg 75%
    09:00 +17°C° 0 mm 5 mps 759 mmHg 74%
    10:00 +17°C° 0.1 mm 5 mps 759 mmHg 74%
    11:00 +17°C° 0.1 mm 6 mps 759 mmHg 74%
    12:00 +17°C° 0.1 mm 6 mps 759 mmHg 74%
    13:00 +16°C° 0 mm 6 mps 759 mmHg 74%
    14:00 +15°C° 0 mm 6 mps 759 mmHg 74%
    15:00 +14°C° 0 mm 6 mps 759 mmHg 74%
    16:00 +13°C° 0 mm 6 mps 759 mmHg 77%
    17:00 +12°C° 0 mm 5 mps 759 mmHg 81%
    18:00 +12°C° 0 mm 5 mps 759 mmHg 85%
    19:00 +9°C° 0 mm 5 mps 760 mmHg 88%
    20:00 +8°C° 0 mm 4 mps 760 mmHg 92%
    21:00 +7°C° 0 mm 4 mps 760 mmHg 95%
    22:00 +8°C° 0 mm 4 mps 760 mmHg 94%
    23:00 +8°C° 0 mm 4 mps 760 mmHg 92%

    Day after tomorrow, 25 May, Saturday

    Time Temperature Precipitation Wind Pressure Humidity
    00:00 +10°C° 0 mm 4 mps 760 mmHg 91%
    01:00 +10°C° 0 mm 4 mps 761 mmHg 92%
    02:00 +8°C° 0 mm 4 mps 761 mmHg 93%
    03:00 +8°C° 0 mm 4 mps 761 mmHg 94%
    04:00 +10°C° 0 mm 4 mps 761 mmHg 92%
    05:00 +10°C° 0 mm 4 mps 761 mmHg 90%
    06:00 +11°C° 0 mm 4 mps 761 mmHg 88%
    07:00 +12°C° 0 mm 4 mps 761 mmHg 85%
    08:00 +13°C° 0 mm 4 mps 762 mmHg 82%
    09:00 +13°C° 0 mm 4 mps 762 mmHg 78%
    10:00 +14°C° 0 mm 5 mps 762 mmHg 77%
    11:00 +14°C° 0 mm 5 mps 762 mmHg 75%
    12:00 +14°C° 0 mm 5 mps 762 mmHg 73%
    13:00 +14°C° 0 mm 5 mps 762 mmHg 74%
    14:00 +14°C° 0 mm 6 mps 761 mmHg 74%
    15:00 +13°C° 0 mm 6 mps 761 mmHg 74%
    16:00 +13°C° 0 mm 5 mps 761 mmHg 76%
    17:00 +12°C° 0 mm 5 mps 761 mmHg 79%
    18:00 +12°C° 0 mm 4 mps 761 mmHg 81%
    19:00 +11°C° 0 mm 4 mps 761 mmHg 85%
    20:00 +10°C° 0 mm 4 mps 761 mmHg 89%
    21:00 +8°C° 0 mm 3 mps 761 mmHg 93%
    22:00 +8°C° 0 mm 4 mps 760 mmHg 93%
    23:00 +8°C° 0 mm 4 mps 760 mmHg 92%

    26 May, Sunday

    Time Temperature Precipitation Wind Pressure Humidity
    00:00 +8°C° 0 mm 4 mps 760 mmHg 92%
    01:00 +8°C° 0.1 mm 4 mps 759 mmHg 92%
    02:00 +8°C° 0.1 mm 5 mps 759 mmHg 92%
    03:00 +9°C° 0.1 mm 5 mps 759 mmHg 92%
    04:00 +10°C° 0.2 mm 4 mps 758 mmHg 93%
    05:00 +10°C° 0.2 mm 4 mps 758 mmHg 93%
    06:00 +10°C° 0.2 mm 4 mps 758 mmHg 94%
    07:00 +11°C° 0.3 mm 4 mps 757 mmHg 94%
    08:00 +10°C° 0.3 mm 5 mps 757 mmHg 95%
    09:00 +11°C° 0.3 mm 6 mps 757 mmHg 95%
    10:00 +11°C° 0.1 mm 6 mps 757 mmHg 95%
    11:00 +12°C° 0.1 mm 5 mps 757 mmHg 95%
    12:00 +13°C° 0.1 mm 5 mps 757 mmHg 95%
    13:00 +13°C° 0.1 mm 5 mps 757 mmHg 94%
    14:00 +13°C° 0.1 mm 5 mps 757 mmHg 93%
    15:00 +14°C° 0.1 mm 4 mps 757 mmHg 92%
    16:00 +13°C° 0 mm 4 mps 756 mmHg 92%
    17:00 +13°C° 0 mm 3 mps 756 mmHg 93%
    18:00 +14°C° 0 mm 2 mps 756 mmHg 93%
    19:00 +13°C° 0.2 mm 3 mps 755 mmHg 95%
    20:00 +13°C° 0.2 mm 3 mps 755 mmHg 96%
    21:00 +12°C° 0.2 mm 3 mps 755 mmHg 97%
    22:00 +13°C° 0 mm 4 mps 754 mmHg 97%
    23:00 +13°C° 0 mm 5 mps 754 mmHg 96%

    27 May, Monday

    Time Temperature Precipitation Wind Pressure Humidity
    00:00 +13°C° 0 mm 6 mps 753 mmHg 95%
    01:00 +13°C° 1.2 mm 5 mps 752 mmHg 96%
    02:00 +13°C° 1.2 mm 5 mps 752 mmHg 97%
    03:00 +13°C° 1.2 mm 5 mps 751 mmHg 97%
    04:00 +12°C° 1.4 mm 4 mps 751 mmHg 97%
    05:00 +12°C° 1.4 mm 4 mps 751 mmHg 97%
    06:00 +12°C° 1.4 mm 4 mps 751 mmHg 97%
    07:00 +12°C° 0.2 mm 4 mps 751 mmHg 94%
    08:00 +13°C° 0.2 mm 5 mps 751 mmHg 91%
    09:00 +13°C° 0.2 mm 5 mps 751 mmHg 88%
    10:00 +14°C° 0.1 mm 5 mps 751 mmHg 82%
    11:00 +14°C° 0.1 mm 5 mps 752 mmHg 77%
    12:00 +15°C° 0.1 mm 6 mps 752 mmHg 72%
    13:00 +15°C° 0.1 mm 6 mps 752 mmHg 72%
    14:00 +14°C° 0.1 mm 5 mps 752 mmHg 73%
    15:00 +14°C° 0.1 mm 5 mps 752 mmHg 73%
    16:00 +13°C° 0 mm 4 mps 752 mmHg 76%
    17:00 +13°C° 0 mm 4 mps 752 mmHg 79%
    18:00 +12°C° 0 mm 3 mps 752 mmHg 82%
    19:00 +12°C° 0 mm 2 mps 752 mmHg 84%
    20:00 +11°C° 0 mm 1 mps 752 mmHg 86%
    21:00 +10°C° 0 mm 1 mps 752 mmHg 88%
    22:00 +10°C° 0 mm 1 mps 752 mmHg 89%
    23:00 +9°C° 0 mm 2 mps 752 mmHg 90%

    28 May, Tuesday

    Time Temperature Precipitation Wind Pressure Humidity
    00:00 +8°C° 0 mm 2 mps 752 mmHg 92%
    01:00 +8°C° 0 mm 2 mps 752 mmHg 92%
    02:00 +8°C° 0 mm 3 mps 752 mmHg 93%
    03:00 +7°C° 0 mm 3 mps 752 mmHg 94%
    04:00 +9°C° 0 mm 3 mps 752 mmHg 91%
    05:00 +10°C° 0 mm 3 mps 752 mmHg 88%
    06:00 +11°C° 0 mm 3 mps 752 mmHg 85%
    07:00 +12°C° 0.1 mm 3 mps 752 mmHg 82%
    08:00 +13°C° 0.1 mm 3 mps 753 mmHg 79%
    09:00 +14°C° 0.1 mm 3 mps 753 mmHg 76%
    10:00 +14°C° 0.3 mm 3 mps 753 mmHg 76%
    11:00 +15°C° 0.3 mm 4 mps 753 mmHg 76%
    12:00 +15°C° 0.3 mm 4 mps 753 mmHg 76%
    13:00 +14°C° 0.1 mm 5 mps 754 mmHg 77%
    14:00 +14°C° 0.1 mm 5 mps 754 mmHg 78%
    15:00 +13°C° 0.1 mm 6 mps 755 mmHg 79%
    16:00 +11°C° 0 mm 6 mps 755 mmHg 80%
    17:00 +10°C° 0 mm 6 mps 756 mmHg 80%
    18:00 +9°C° 0 mm 6 mps 756 mmHg 80%
    19:00 +8°C° 0 mm 6 mps 757 mmHg 79%
    20:00 +7°C° 0 mm 5 mps 758 mmHg 77%
    21:00 +7°C° 0 mm 4 mps 758 mmHg 75%
    22:00 +6°C° 0 mm 4 mps 759 mmHg 77%
    23:00 +5°C° 0 mm 4 mps 759 mmHg 79%
    Show more